Location: *
(38.9555°S, 57.3572°E)
Time: 01:50:58
(UTC+00:00)

SKYMED 2 - Pass Details

Date: 15 July 2020
Orbit: 621 x 623 km, 97.9° (Epoch: 06 August)

Event Time Altitude Azimuth Distance (km) Brightness Sun altitude
Rises 13:33:24 0° 9° (N) 2,893 7.2 -5.4°
Reaches altitude 10° 13:35:34 10° 6° (N) 1,996 6.4 -5.8°
Maximum altitude 13:39:54 71° 282° (WNW) 669 4.0 -6.5°
Drops below altitude 10° 13:44:19 10° 197° (SSW) 2,026 6.2 -7.3°
Sets 13:46:33 0° 194° (SSW) 2,942 7.0 -7.7°
